Home   Weather   Guangzhou   Past weeks
Flag for China

Past Weather in Guangzhou, Guangdong, China — Yesterday and Last 2 Weeks

Now
81 °F

Partly sunny.


Feels Like: 84 °F
Forecast: 85 / 78 °F
Wind: 3 mph from East

Location: Canton Airport

Current Time: May 22, 2019 at 11:40:41 am

Latest Report: May 22, 2019 at 10:30 am


Visibility: 3 mi

Pressure: 29.83 "Hg

Humidity: 70%

Dew Point: 70 °F

Location of GuangzhouLocation

Past Weather in Guangzhou — Graph

°F

Guangzhou Temperature Yesterday

Maximum temperature yesterday: 82 °F (at 12:00 pm)
Minimum temperature yesterday: 75 °F (at 10:00 pm)
Average temperature yesterday: 79 °F

High & Low Weather Summary for the Past Weeks

 TemperatureHumidityPressure
High97 °F (May 19, 2:30 pm)94% (May 8, 4:00 am)29.92 "Hg (May 8, 4:00 am)
Low66 °F (May 8, 4:00 am)41% (May 12, 3:00 pm)29.45 "Hg (May 16, 7:00 am)
Average81 °F73%29.77 "Hg
* Reported May 7 10:00 am — May 22 10:00 am, Guangzhou. Weather by CustomWeather, © 2019

Note: Actual official high and low records may vary slightly from our data, if they occured in-between our weather recording intervals... More about our weather records

Advertising

Guangzhou Weather History for the Previous 24 Hours

Scroll right to see more
 ConditionsComfort  
Time TempWeatherWind HumidityBarometerVisibility
10:00 am
Wed, May 22
81 °FPartly sunny.1 mph70%29.83 "Hg3 mi
9:30 am81 °FFog.No wind70%29.83 "Hg3 mi
9:00 am79 °FFog.1 mph74%29.83 "Hg3 mi
8:30 am77 °FFog.3 mph79%29.83 "Hg3 mi
8:00 am77 °FFog.3 mph79%29.83 "Hg3 mi
7:30 am75 °FFog.3 mph83%29.86 "Hg3 mi
7:00 am77 °FFog.3 mph83%29.83 "Hg2 mi
6:30 am77 °FFog.1 mph83%29.83 "Hg2 mi
6:00 am75 °FFog.1 mph89%29.83 "Hg2 mi
5:30 am75 °FFog.1 mph89%29.80 "Hg3 mi
5:00 am77 °FFog.3 mph83%29.80 "Hg3 mi
4:30 am77 °FFog.6 mph83%29.80 "Hg3 mi
4:00 am77 °FLight rain. Fog.6 mph83%29.80 "Hg3 mi
3:30 am75 °FFog.6 mph89%29.80 "Hg2 mi
3:00 am75 °FFog.3 mph89%29.80 "Hg2 mi
2:30 am75 °FFog.6 mph94%29.80 "Hg2 mi
2:00 am77 °FFog.3 mph89%29.80 "Hg2 mi
1:30 am77 °FFog.3 mph89%29.83 "Hg2 mi
1:00 am77 °FFog.3 mph89%29.83 "Hg2 mi
12:30 am77 °FFog.1 mph89%29.83 "Hg2 mi
12:00 am77 °FFog.3 mph89%29.86 "Hg2 mi
11:30 pm
Tue, May 21
77 °FLight rain. Fog.3 mph89%29.86 "Hg3 mi
11:00 pm77 °FLight rain. Fog.1 mph89%29.86 "Hg3 mi
10:30 pm77 °FLight rain. Fog.1 mph89%29.86 "Hg3 mi
10:00 pm75 °FLight rain. Fog.3 mph94%29.86 "Hg2 mi
9:30 pm77 °FLight rain. Fog.3 mph89%29.86 "Hg2 mi
9:00 pm79 °FPartly cloudy.3 mph79%29.83 "Hg4 mi
8:30 pm81 °FPassing clouds.1 mph74%29.83 "Hg5 mi
8:00 pm81 °FPassing clouds.1 mph74%29.83 "Hg5 mi
7:30 pm81 °FPassing clouds.1 mph74%29.83 "Hg5 mi
7:00 pm81 °FPartly sunny.1 mph74%29.80 "Hg5 mi
6:30 pm81 °FPartly sunny.3 mph74%29.80 "Hg5 mi
6:00 pm81 °FPartly sunny.3 mph74%29.80 "Hg5 mi
5:30 pm81 °FPartly sunny.6 mph70%29.77 "Hg5 mi
5:00 pm81 °FPartly sunny.3 mph70%29.77 "Hg5 mi
4:30 pm81 °FPartly sunny.3 mph70%29.77 "HgN/A
4:00 pm81 °FPartly sunny.3 mph70%29.77 "HgN/A
3:30 pm81 °FPartly sunny.6 mph70%29.80 "HgN/A
3:00 pm81 °FPartly sunny.6 mph70%29.80 "HgN/A
2:30 pm81 °FPartly sunny.6 mph70%29.80 "HgN/A
2:00 pm82 °FPartly sunny.3 mph66%29.83 "HgN/A
1:30 pm82 °FPartly sunny.3 mph66%29.83 "HgN/A
1:00 pm82 °FPartly sunny.3 mph66%29.83 "HgN/A
12:30 pm82 °FPartly sunny.3 mph66%29.86 "HgN/A
12:00 pm82 °FPartly sunny.3 mph62%29.86 "HgN/A
11:30 am81 °FPartly sunny.3 mph62%29.86 "HgN/A
11:00 am81 °FPartly sunny.3 mph66%29.86 "HgN/A
Weather by CustomWeather, © 2019

See weather overview